Regional Weather Roundup
Issued by NWS Charleston, SC

Current Version | Previous Version | Graphics & Text | Print | Product List | Glossary On
Versions: 1 2 3 4 5 6 7 8 9 10 11 12 13 14 15 16 17 18 19 20 21 22 23 24 25 26 27 28 29 30 31 32 33 34 35 36 37 38 39 40 41 42 43 44 45 46 47 48 49 50
000 ASUS42 KCHS 012312 RWRCHS REGIONAL WEATHER ROUNDUP NATIONAL WEATHER SERVICE CHARLESTON SC 700 PM EDT WED JUL 01 2015 NOTE: "FAIR" INDICATES FEW OR NO CLOUDS BELOW 12,000 FEET WITH NO SIGNIFICANT WEATHER AND/OR OBSTRUCTIONS TO VISIBILITY. NOT ALL STATIONS ARE QUALITY CONTROLLED BY THE NATIONAL WEATHER SERVICE. USE DATA WITH CAUTION...ESPECIALLY DEWPOINT OBSERVATIONS. SCZ027-030-031-034>040-042>050-020000- ...SOUTHEAST SOUTH CAROLINA... CITY SKY/WX TMP DP RH WIND PRES REMARKS N CHARLESTON PTSUNNY 85 70 60 W8 29.98S WATERFRONT PAR N/A 87 72 60 SW7 29.95R HX 93 MOUNT PLEASANT FAIR 88 72 58 W8 29.98S HX 94 JOHNS ISLAND FAIR 86 73 66 SW5 29.99R HX 93 PINOPOLIS NOT AVBL MONCKS CORNER FAIR 84 72 65 SW5 29.98R SUMMERVILLE FAIR 82 73 74 CALM 29.99R BEAUFORT MCAS PTSUNNY 86 71 60 W6 29.99S HX 91 BEAUFORT ARPT FAIR 88 73 62 W6 29.98F HX 96 HILTON HEAD IS MOSUNNY 88 70 55 W8 30.00S HX 92 WALTERBORO PTCLDY 84 70 61 W6 29.99S ALLENDALE FAIR 86 72 62 CALM 29.98S HX 92 ...SOUTHERN MIDLANDS AND PEE DEE... CITY SKY/WX TMP DP RH WIND PRES REMARKS GEORGETOWN NOT AVBL KINGSTREE NOT AVBL ORANGEBURG MOSUNNY 85 69 58 SW10 29.97F BARNWELL FAIR 86 72 62 W8 29.98F HX 92 AIKEN NOT AVBL MANNING FAIR 82 68 61 SW6 29.96F COLUMBIA PTSUNNY 85 68 56 SW6 29.96R SUMTER PTSUNNY 85 71 61 SW8 29.94S HX 90 FLORENCE PTSUNNY 84 70 62 SW9 29.95S MYRTLE BEACH MOSUNNY 84 70 61 SW9 29.98R N MYRTLE BEACH SUNNY 84 69 60 W7 29.96R $$ GAZ063-065-086>088-099>101-113>116-118-119-134>141-150-020000- ...SOUTHEAST GEORGIA... CITY SKY/WX TMP DP RH WIND PRES REMARKS SAVANNAH ARPT PTSUNNY 88 69 53 W9 29.99S HX 92 HUNTER AAF MOSUNNY 88 73 60 SW8 29.97S HX 95 FORT STEWART MOSUNNY 89 70 53 SW9 29.98S HX 94 STATESBORO MOSUNNY 87 76 69 W5 29.99F HX 97 SYLVANIA PTCLDY 88 74 64 W5 30.00S HX 97 CLAXTON FAIR 86 72 62 W5 29.99F HX 92 ...CSRA...CENTRAL AND FAR SOUTHEAST GEORGIA... CITY SKY/WX TMP DP RH WIND PRES REMARKS THOMSON PTSUNNY 85 73 67 SW3 30.05S HX 91 AUGUSTA-BUSH SUNNY 85 69 58 SW9 29.97F AUGUSTA-DANIEL PTSUNNY 86 68 54 SW7 29.99S SWAINSBORO FAIR 88 73 62 W5 30.00F HX 96 VIDALIA MOSUNNY 88 70 55 W7 30.00S HX 92 EASTMAN MOCLDY 90 69 49 W7 30.03R HX 95 HAZLEHURST FAIR 90 70 51 CALM 29.99F HX 95 ALMA SUNNY 89 68 49 W9 30.01F HX 93 WAYCROSS MOSUNNY 93 72 50 W9 30.01F HX 101 JESUP FAIR 91 72 52 W7 30.01S HX 98 BAXLEY FAIR 90 70 51 W6 30.00F HX 95 BRUNSWICK SUNNY 91 70 49 W9 30.01S HX 97 SAINT SIMONS MOSUNNY 90 69 50 SW13 30.00S HX 94 $$ SCZ027-028-034-036>038-045-046-048>050-GAZ119-141-020000- ...LAKE AND SUPPLEMENTAL COASTAL OBSERVATIONS... STATION/POSITION TIME TEMP WIND PRES WAVE SWELL AIR SEA DIR/SP/G HT/PER HT/PER/DIR (UTC) (F) (DEG/KT/KT) (MB) (FT/S) (FT/S/D) UPR LAKE MARION NOT AVBL WINYAH BAY NOT AVBL LAKE MURRAY 2200 85 240/ 8/ 10 1013.9S ACE BASIN NERRS NOT AVBL FORT PULASKI 2200 89 84 250/ 9/ 13 1016.0F SAPELO ISLAND 2200 91 260/ 12 1016.0S $$ ANZ835-935-AMZ111-154-330-350-352-354-370-450-454-472-020000- ...C-MAN AND BUOY OBSERVATIONS... STATION/POSITION TIME TEMP WIND PRES WAVE SWELL AIR SEA DIR/SP/G HT/PER HT/PER/DIR (UTC) (F) (DEG/KT/KT) (MB) (FT/S) (FT/S/D) BUOY 41004 2250 82 82 220/ 16/ 19 1015.0R 5/ 6 2/ 8 BUOY 41008 2250 81 79 200/ 12/ 14 1016.1S 2/ 3 2/ 90/ 9 FOLLY BEACH CMAN 2200 87 250/ 8/ 12 1015.3S CAPERS NEARSHORE 2208 83 230/ 16/ 21 1015.3R FRIPP NEARSHORE 2200 84 210/ 10/ 12 1015.2F STATION/POSITION TIME TEMP WIND PRES WAVE SWELL AIR SEA DIR/SP/G HT/PER HT/PER/DIR (UTC) (F) (DEG/KT/KT) (MB) (FT/S) (FT/S/D) 5E ST. MARYS GA 2221 78 N/A 2/ 5 FRYING PAN BUOY 2250 81 80 220/ 16/ 17 1014.8F 5/ 6 2/150/ 8 BUOY 41025 2250 81 83 220/ 17/ 21 1013.3S 5/ 8 3/160/ 8 CAPE LOOKOUT NC 2200 80 220/ 14/ 17 1013.7R BUOY 41002 2250 82 80 230/ 17/ 21 1017.9R 6/ 7 2/ 70/12 BUOY 41010 2220 84 85 200/ 8/ 10 1019.5F ST AUGUSTINE FL 2300 83 74 260/ 5/ 6 1018.1F $$

USA.gov is the U.S. government's official web portal to all federal, state and local government web resources and services.